[[{"header":{"parameterUnit":"m.s-1","parameterCategory":1,"la1":30.2991,"la2":30.254,"lo1":-89.0895,"lo2":-89.0444,"dy":0.0017,"dx":0.0017,"nx":28,"ny":28,"refTime":"2025-09-19T03:00:00:Z","depth":0,"parameterNumber":2,"parameterNumberName":"U-component_of_WINDS"},"data":[0,0,0,0,0,0,0,0,0,0,0,0,0,0,0,0,0,0,0,0,0,0,0,0,0,0,0,0,0,0,0,0,0,0,0,0,0,0,0,0,0,0,0,0,0,0,0,0,0,0,0,0,0,0,0,0,0,0,1.2377,1.2376,0,1.2322,1.2321,1.2321,1.2247,1.2246,1.2245,1.2244,1.2187,1.2187,1.2187,0,0,0,0,0,0,0,0,0,0,0,0,0,1.242,1.242,1.2377,1.2376,1.2376,1.2322,1.2321,1.2321,1.2247,1.2246,1.2244,1.2243,1.2187,1.2187,1.2187,0,0,0,0,0,0,0,0,0,0,0,0,0,1.2387,1.242,1.2377,1.2333,1.2328,1.2322,1.2321,1.232,1.2248,1.2246,1.2244,1.2242,1.2188,1.2187,1.2187,1.222,0,0,1.2185,1.2185,0,0,0,0,0,0,0,0,1.2389,1.2385,1.234,1.2336,1.2331,1.229,1.2316,1.2287,1.2248,1.2278,1.2244,1.2241,1.2223,1.2219,1.2213,1.2217,1.2215,1.2185,1.2184,1.2184,1.2184,0,0,0,0,0,0,0,1.2391,1.2387,1.2355,1.2339,1.2334,1.2316,1.2309,1.231,1.2261,1.2275,1.227,1.2265,1.222,1.2214,1.2211,1.2214,1.2185,1.2184,1.2184,1.2184,1.2245,1.2247,0,0,0,0,0,0,1.24,1.239,1.2357,1.2354,1.2356,1.2317,1.2309,1.2305,1.2261,1.2253,1.2266,1.2261,1.2216,1.2212,1.2209,1.2247,1.2184,1.2184,1.2183,1.2243,1.2246,1.2248,0,0,0,0,0,0,1.2401,1.2398,1.2359,1.237,1.2364,1.2318,1.2313,1.2305,1.2298,1.2254,1.2245,1.2269,1.2214,1.221,1.2218,1.2244,1.2184,1.2183,1.2241,1.2244,1.2247,1.2321,0,0,0,0,0,0,1.2403,1.2399,1.241,1.2371,1.2364,1.2369,1.2315,1.2305,1.2297,1.2291,1.2254,1.2246,1.2212,1.2219,1.2218,1.2242,1.2183,1.2239,1.2242,1.2246,1.2317,1.2327,1.2335,0,0,0,0,0,1.2405,1.2433,1.2411,1.2408,1.2377,1.2371,1.2366,1.2327,1.23,1.2312,1.2284,1.2247,1.2241,1.2221,1.2218,1.2243,1.2237,1.2241,1.2246,1.2312,1.2325,1.2335,0,0,0,0,0,0,1.2476,1.2427,1.2402,1.2419,1.24,1.2358,1.2372,1.2341,1.2328,1.2322,1.2274,1.2266,1.2281,1.2262,1.2241,1.2274,1.2234,1.2238,1.2285,1.2297,1.2306,1.231,1.2182,0,0,0,0,0,1.2494,1.2492,1.2449,1.2468,1.246,1.2418,1.2413,1.2385,1.2363,1.2354,1.2327,1.2307,1.2301,1.2298,1.2289,1.2314,1.2306,1.2329,1.2339,1.2347,1.2351,1.2364,1.2375,1.2262,1.2262,1.2262,0,0,1.253,1.2503,1.2505,1.2482,1.2464,1.2464,1.2411,1.2413,1.2414,1.2354,1.2361,1.2341,1.2316,1.2333,1.2339,1.2318,1.238,1.2352,1.2359,1.2359,1.237,1.2381,1.239,1.2265,1.2265,1.2264,0,0,1.2597,1.2576,1.259,1.2573,1.2546,1.2519,1.2522,1.2486,1.2471,1.2477,1.2433,1.2433,1.2423,1.2407,1.2398,1.2462,1.2429,1.2461,1.251,1.2524,1.2532,1.254,1.2564,1.2574,1.2465,1.2465,1.2465,0,1.2645,1.2644,1.2601,1.2607,1.2598,1.2546,1.2561,1.2546,1.2519,1.2515,1.2491,1.2479,1.2458,1.2472,1.2488,1.2482,1.2486,1.2465,1.2535,1.2542,1.2548,1.2571,1.258,1.2469,1.2469,1.2469,1.2468,0,1.2705,1.2705,1.272,1.2696,1.2689,1.2699,1.2659,1.2658,1.263,1.2606,1.2614,1.2588,1.2574,1.2575,1.2548,1.2586,1.2574,1.2543,1.2502,1.2564,1.2585,1.2593,1.2475,1.2474,1.2473,1.2472,0,0,1.2814,1.2767,1.2774,1.2763,1.2731,1.273,1.2739,1.2726,1.2727,1.271,1.2717,1.2711,1.2683,1.2673,1.2643,1.2656,1.271,1.2624,1.2622,1.2642,1.2753,1.2777,1.2788,1.2688,1.269,1.2691,1.2756,0,1.2875,1.2887,1.285,1.2872,1.2872,1.2824,1.2831,1.2813,1.2791,1.2789,1.2764,1.2761,1.2724,1.2717,1.2727,1.2702,1.2732,1.2696,1.2695,1.2696,1.2704,1.2798,1.2822,1.2885,1.2763,1.2765,1.2765,0,1.2948,1.2936,1.2958,1.2927,1.2926,1.2933,1.292,1.2918,1.2897,1.288,1.287,1.2837,1.2844,1.2805,1.2816,1.2792,1.279,1.2778,1.2779,1.2778,1.2735,1.28,1.2903,1.2913,1.2777,1.2776,1.2776,0,1.3027,1.3016,1.3029,1.3021,1.2984,1.2991,1.2976,1.2954,1.2949,1.2938,1.2935,1.2924,1.2919,1.2912,1.2877,1.2851,1.2892,1.285,1.2879,1.2881,1.289,1.289,1.2996,1.2888,1.2888,1.2887,1.2887,0,1.3099,1.3115,1.3064,1.3071,1.3088,1.3046,1.3064,1.3045,1.3026,1.3029,1.2986,1.2991,1.2945,1.2944,1.2917,1.2931,1.2929,1.2916,1.2909,1.292,1.2922,1.2918,1.2913,1.289,1.2889,1.2889,1.2888,0,1.319,1.3156,1.3167,1.3132,1.3124,1.3138,1.3109,1.3115,1.3091,1.3096,1.3095,1.3057,1.3055,1.302,1.301,1.2992,1.3017,1.3001,1.3024,1.302,1.3052,1.305,1.3159,1.3172,1.3055,1.3057,1.3058,0,1.3239,1.325,1.3217,1.3217,1.3205,1.3204,1.32,1.316,1.3157,1.3136,1.3145,1.314,1.3133,1.3133,1.3104,1.3097,1.3082,1.312,1.308,1.3092,1.3084,1.3084,1.3086,1.3129,1.3131,1.3132,1.3133,0,1.333,1.3313,1.3308,1.3299,1.3295,1.3285,1.3273,1.3275,1.3231,1.3231,1.3228,1.3224,1.3215,1.321,1.3199,1.3184,1.3152,1.3146,1.3152,1.3165,1.3178,1.3173,1.3049,1.3143,1.3142,1.3141,1.3141,1.314,1.3402,1.341,1.3389,1.3386,1.3373,1.3363,1.3368,1.3345,1.3342,1.3332,1.3308,1.331,1.3291,1.3272,1.3261,1.3263,1.3243,1.3252,1.3255,1.3258,1.3265,1.3178,1.326,1.326,1.3259,1.3259,1.3259,0,1.3491,1.3476,1.3473,1.3458,1.3456,1.3426,1.3412,1.3413,1.3415,1.34,1.3395,1.3394,1.339,1.3363,1.3356,1.3363,1.3348,1.3363,1.3362,1.336,1.3282,1.3278,1.3375,1.3375,1.3375,1.3375,1.3375,1.3375,1.3538,1.3551,1.3533,1.354,1.3524,1.3526,1.352,1.3512,1.35,1.35,1.3497,1.3479,1.346,1.3452,1.3448,1.344,1.344,1.346,1.3448,1.3376,1.3365,1.3354,1.335,1.346,1.346,1.3525,1.3525,1.3526]},{"header":{"parameterUnit":"m.s-1","parameterCategory":1,"la1":30.2991,"la2":30.254,"lo1":-89.0895,"lo2":-89.0444,"dy":0.0017,"dx":0.0017,"nx":28,"ny":28,"refTime":"2025-09-19T03:00:00:Z","depth":0,"parameterNumber":3,"parameterNumberName":"V-component_of_WINDS"},"data":[0,0,0,0,0,0,0,0,0,0,0,0,0,0,0,0,0,0,0,0,0,0,0,0,0,0,0,0,0,0,0,0,0,0,0,0,0,0,0,0,0,0,0,0,0,0,0,0,0,0,0,0,0,0,0,0,0,0,-2.4421,-2.4421,0,-2.4387,-2.4387,-2.4386,-2.4359,-2.4359,-2.4359,-2.4359,-2.4319,-2.4318,-2.4317,0,0,0,0,0,0,0,0,0,0,0,0,0,-2.4462,-2.4461,-2.4421,-2.4421,-2.4421,-2.4387,-2.4387,-2.4386,-2.4359,-2.4359,-2.4359,-2.4358,-2.4319,-2.4318,-2.4317,0,0,0,0,0,0,0,0,0,0,0,0,0,-2.4437,-2.4461,-2.4422,-2.4403,-2.4401,-2.4387,-2.4387,-2.4386,-2.4359,-2.4359,-2.4359,-2.4358,-2.432,-2.4318,-2.4317,-2.4317,0,0,-2.4313,-2.4313,0,0,0,0,0,0,0,0,-2.4439,-2.4436,-2.4406,-2.4405,-2.4402,-2.4377,-2.4386,-2.4363,-2.436,-2.4375,-2.4359,-2.4358,-2.4338,-2.4336,-2.433,-2.4315,-2.4313,-2.4313,-2.4312,-2.4312,-2.4312,0,0,0,0,0,0,0,-2.444,-2.4437,-2.4408,-2.4406,-2.4404,-2.4396,-2.4392,-2.4382,-2.4359,-2.4374,-2.4372,-2.4368,-2.4337,-2.4331,-2.4329,-2.4313,-2.4313,-2.4312,-2.4311,-2.4311,-2.4299,-2.4299,0,0,0,0,0,0,-2.4445,-2.4439,-2.4409,-2.4407,-2.442,-2.4396,-2.4391,-2.4386,-2.4359,-2.4355,-2.4369,-2.4367,-2.4333,-2.433,-2.4327,-2.4327,-2.4312,-2.4311,-2.431,-2.4298,-2.4299,-2.4299,0,0,0,0,0,0,-2.4446,-2.4443,-2.441,-2.4422,-2.4418,-2.4395,-2.4389,-2.4385,-2.4379,-2.4355,-2.4351,-2.4367,-2.4333,-2.4329,-2.4321,-2.4325,-2.431,-2.4309,-2.4298,-2.4298,-2.4299,-2.4325,0,0,0,0,0,0,-2.4448,-2.4444,-2.4444,-2.4423,-2.4417,-2.4405,-2.4389,-2.4385,-2.4377,-2.4375,-2.4352,-2.4348,-2.4332,-2.4323,-2.4319,-2.4323,-2.4308,-2.4297,-2.4298,-2.4299,-2.4323,-2.4326,-2.4329,0,0,0,0,0,-2.4449,-2.4451,-2.4444,-2.444,-2.4417,-2.4405,-2.4402,-2.4385,-2.4378,-2.4378,-2.4363,-2.4349,-2.4325,-2.4322,-2.4318,-2.4321,-2.4297,-2.4298,-2.4299,-2.4322,-2.4326,-2.4329,0,0,0,0,0,0,-2.447,-2.4447,-2.4439,-2.4434,-2.4422,-2.4401,-2.4399,-2.4389,-2.4377,-2.4375,-2.4353,-2.4348,-2.4342,-2.4331,-2.4328,-2.4321,-2.4309,-2.4309,-2.4329,-2.4332,-2.4334,-2.4337,-2.4307,0,0,0,0,0,-2.4475,-2.4469,-2.4448,-2.4446,-2.444,-2.4421,-2.4415,-2.4404,-2.439,-2.4384,-2.4368,-2.4354,-2.4344,-2.4337,-2.4326,-2.4322,-2.4317,-2.4322,-2.4325,-2.4327,-2.4328,-2.4327,-2.4329,-2.4302,-2.4302,-2.4302,0,0,-2.4483,-2.447,-2.4467,-2.445,-2.4439,-2.4433,-2.4417,-2.441,-2.4405,-2.4382,-2.4374,-2.4363,-2.4345,-2.434,-2.4337,-2.433,-2.4334,-2.4329,-2.4331,-2.4329,-2.4328,-2.433,-2.4333,-2.4303,-2.4303,-2.4303,0,0,-2.4496,-2.4485,-2.4482,-2.4473,-2.4458,-2.4445,-2.4445,-2.4426,-2.4418,-2.441,-2.4394,-2.4387,-2.4369,-2.4358,-2.435,-2.4362,-2.4349,-2.4359,-2.4372,-2.4371,-2.4373,-2.4375,-2.438,-2.4382,-2.4359,-2.4359,-2.4359,0,-2.4507,-2.4498,-2.4482,-2.4477,-2.4471,-2.4453,-2.445,-2.4441,-2.4422,-2.4418,-2.4411,-2.4391,-2.4377,-2.437,-2.4373,-2.4367,-2.4366,-2.4361,-2.4374,-2.4376,-2.4377,-2.4382,-2.4384,-2.436,-2.436,-2.436,-2.436,0,-2.4514,-2.4508,-2.4508,-2.4493,-2.4486,-2.4482,-2.4466,-2.4461,-2.4451,-2.4439,-2.4432,-2.4416,-2.4403,-2.44,-2.4389,-2.4392,-2.4389,-2.4379,-2.4366,-2.4382,-2.4386,-2.4387,-2.4362,-2.4362,-2.4362,-2.4361,0,0,-2.4536,-2.4515,-2.4515,-2.451,-2.4493,-2.4487,-2.4483,-2.4472,-2.4469,-2.4457,-2.4453,-2.444,-2.4432,-2.4423,-2.4411,-2.441,-2.4422,-2.44,-2.4399,-2.4405,-2.4426,-2.4434,-2.4437,-2.4414,-2.4414,-2.4415,-2.4428,0,-2.4546,-2.4539,-2.4526,-2.4523,-2.4518,-2.4502,-2.4499,-2.4488,-2.4478,-2.4472,-2.446,-2.4452,-2.444,-2.4435,-2.4434,-2.4421,-2.4426,-2.442,-2.441,-2.441,-2.4415,-2.4438,-2.4446,-2.4459,-2.4429,-2.443,-2.443,0,-2.4556,-2.4548,-2.4545,-2.4532,-2.4529,-2.4526,-2.4516,-2.451,-2.4498,-2.4491,-2.4483,-2.4471,-2.4466,-2.4456,-2.4449,-2.4445,-2.444,-2.4434,-2.4434,-2.4432,-2.4421,-2.4438,-2.4463,-2.4465,-2.4432,-2.4432,-2.4432,0,-2.4574,-2.4562,-2.456,-2.4555,-2.4538,-2.4537,-2.453,-2.4518,-2.4513,-2.4504,-2.4501,-2.4491,-2.4485,-2.4478,-2.4463,-2.4457,-2.4458,-2.4446,-2.4452,-2.4453,-2.4453,-2.4453,-2.4478,-2.445,-2.445,-2.445,-2.4449,0,-2.4586,-2.4585,-2.4568,-2.4566,-2.4565,-2.4551,-2.455,-2.4541,-2.4531,-2.4527,-2.4513,-2.4509,-2.449,-2.4485,-2.4473,-2.447,-2.4467,-2.4462,-2.4458,-2.4463,-2.4464,-2.4459,-2.4458,-2.445,-2.445,-2.445,-2.445,0,-2.4605,-2.4593,-2.459,-2.4576,-2.4573,-2.4572,-2.456,-2.4558,-2.4548,-2.4544,-2.4542,-2.4526,-2.452,-2.4505,-2.4493,-2.4485,-2.4485,-2.448,-2.449,-2.4488,-2.4495,-2.4495,-2.4519,-2.4522,-2.4491,-2.4491,-2.4492,0,-2.4613,-2.4613,-2.46,-2.4598,-2.4592,-2.4587,-2.4583,-2.4569,-2.4565,-2.4554,-2.4553,-2.4546,-2.4539,-2.4529,-2.4516,-2.4508,-2.4502,-2.4511,-2.45,-2.4506,-2.4503,-2.4503,-2.4504,-2.4513,-2.4513,-2.4514,-2.4514,0,-2.463,-2.4625,-2.462,-2.4615,-2.4611,-2.4604,-2.4597,-2.4596,-2.4581,-2.4577,-2.4571,-2.4566,-2.4556,-2.4549,-2.454,-2.4532,-2.452,-2.4518,-2.4519,-2.4523,-2.453,-2.4527,-2.4497,-2.4517,-2.4517,-2.4516,-2.4516,-2.4516,-2.4644,-2.4644,-2.4636,-2.4631,-2.4626,-2.462,-2.4619,-2.461,-2.4605,-2.4597,-2.4589,-2.4585,-2.4575,-2.4561,-2.4554,-2.455,-2.4545,-2.4546,-2.4546,-2.4547,-2.4549,-2.4531,-2.4548,-2.4548,-2.4548,-2.4548,-2.4548,0,-2.4661,-2.4656,-2.4652,-2.4645,-2.4642,-2.4634,-2.4626,-2.4624,-2.4621,-2.4613,-2.4608,-2.4603,-2.4597,-2.4585,-2.4577,-2.4577,-2.4572,-2.4575,-2.4575,-2.4574,-2.4554,-2.4555,-2.458,-2.458,-2.458,-2.458,-2.458,-2.458,-2.4669,-2.4669,-2.4664,-2.4661,-2.4655,-2.4652,-2.4649,-2.4644,-2.4638,-2.4633,-2.4629,-2.4622,-2.4613,-2.4606,-2.4601,-2.4597,-2.4595,-2.4601,-2.4596,-2.4578,-2.4575,-2.4572,-2.4572,-2.4601,-2.4601,-2.4616,-2.4616,-2.4616]}]]